Погода в Южном

Казахстан     49°21′40″N   72°54′17″E
темп.,
°C
ветер,
м/с
пор.,
м/с
влажн.,
%
обл.,
%
осадки,
мм/ч
давл.,
гПа
погр.,
м
2 марта, вт
вт200:00−3зюз6119594 0.2 1018464
03:00−3юз51094100 0.1 1018574
06:00−3зюз3995100 0.1 1018474
09:00−4зюз3896100 0.0 1018465
12:00−4зюз6994100 0.6 1017528
15:00−4зюз5894100 1.0 1016542
18:00−6зюз61192100 1.2 1018584
21:00−11зюз71293100 0.1 1021430
3 марта, ср
ср300:00−15зюз4996100 0.3 1024247
03:00−16юз51095100 0.1 1025304
06:00−17юз51195100 0.2 1027316
09:00−18ююз41197100 0.0 1027267
12:00−14юз6119299 0.1 1027367
15:00−11юз7118823 0.0 1026371
18:00−12ююз6128912 0.0 1026312
21:00−13ююз510923 0.0 1027199
4 марта, чт
чт400:00−13ююз5129012 0.0 1027207
03:00−12ююз5118532 0.0 1026165
06:00−12ю488143 0.0 1026129
09:00−11ю41079100 0.0 1025195
12:00−5ю6127692 0.0 1023439
15:00−5ю8148032 0.0 1020572
18:00−7ю7148866 0.0 1019410
21:00−9ю5118887 0.0 1019252
5 марта, пт
пт500:00−8ю499194 0.0 1017219
03:00−5юз41096100 0.9 1016434
06:00−6зсз61295100 1.1 1020461
09:00−11з51196100 0.1 1026312
12:00−10юз6109197 0.1 1030378
15:00−8юз8138520 0.0 1031475
18:00−9юз7148610 0.0 1031361
21:00−11ююз6148858 0.0 1032276
6 марта, сб
сб600:00−13ююз5108334 0.0 1032166
03:00−14ююз48790 0.0 1030115
06:00−14ю45790 0.0 102962
09:00−13ю34845 0.0 102983
12:00−7ююз588614 0.0 1027336
15:00−5ююз45842 0.0 1024333
18:00−7ююз238716 0.0 102421
21:00−11ююв228114 0.0 102521